Location: Eimen
(51.8766°N, 9.7806°E)
Time: 15:06:54
(UTC+00:00)

Resurs 1-4 Rocket - Pass Details

Date: 23 May 2024
Orbit: 798 x 814 km, 98.7° (Epoch: 13 June)

Event Time Altitude Azimuth Distance (km) Brightness Sun altitude
Rises 00:24:33 0° 23° (NNE) 3,319 7.1 -16.0°
Reaches altitude 10° 00:27:15 10° 35° (NE) 2,383 5.7 -15.9°
Maximum altitude 00:31:41 27° 93° (E) 1,504 3.7 -15.7°
Enters shadow 00:36:00 10° 150° (SSE) 2,349 4.1 -15.5°
